User: anonymous   Login
Location: Newark
(35.4036°N, 80.4356°W)
Time: 07:49:08
(UTC+00:00)
Language:

Gurwin Techsat 1B - Orbit

View from above orbital plane
View from above orbital plane
View from above satellite
View from above satellite

Ground track
Ground track

The orbit data is extracted from the following two-line orbital elements,

1 25397U 98043D   19289.86995069 -.00000012  00000-0  13797-4 0  9996
2 25397  98.6980 228.6025 0002262  65.9588 294.1827 14.23672258104970
Epoch (UTC): 16 October 2019 20:52:43
Eccentricity: 0.0002262
inclination: 98.6980°
perigee height: 811 km
apogee height: 814 km
right ascension of ascending node: 228.6025°
argument of perigee: 65.9588°
revolutions per day: 14.23672258
mean anomaly at epoch: 294.1827°
orbit number at epoch: 10497

The dashed part of the orbit path shows where the satellite is in the earth's shadow,  

DLR